| time (UTC) | temp F | wind direction | speed knots | gust knots | rain 1hr in | rain 24hr in | rain mn in | humidity % | barometer mb |
| 20260505194534 | 84 | 0 | 0.0 | 1.7 | 0.00 | 0.00 | 0.00 | 42 | 1014.9 |
| 20260505193044 | 83 | 53 | 0.9 | 3.5 | 0.00 | 0.00 | 0.00 | 37 | 1015.1 |
| 20260505191536 | 85 | 184 | 1.7 | 6.1 | 0.00 | 0.00 | 0.00 | 39 | 1015.5 |
| 20260505190038 | 84 | 0 | 0.0 | 5.2 | 0.00 | 0.00 | 0.00 | 37 | 1015.4 |
| 20260505184533 | 83 | 0 | 0.9 | 9.6 | 0.00 | 0.00 | 0.00 | 39 | 1015.5 |
| 20260505183031 | 85 | 207 | 0.9 | 3.5 | 0.00 | 0.00 | 0.00 | 38 | 1015.6 |
| 20260505181533 | 84 | 127 | 0.9 | 8.7 | 0.00 | 0.00 | 0.00 | 40 | 1015.9 |
| 20260505180036 | 82 | 289 | 0.9 | 9.6 | 0.00 | 0.00 | 0.00 | 41 | 1015.9 |
| 20260505174532 | 83 | 250 | 0.9 | 3.5 | 0.00 | 0.00 | 0.00 | 38 | 1016.1 |
| 20260505173032 | 83 | 274 | 2.6 | 6.1 | 0.00 | 0.00 | 0.00 | 41 | 1016.3 |
| 20260505171529 | 82 | 169 | 0.9 | 6.1 | 0.00 | 0.00 | 0.00 | 43 | 1016.4 |
| 20260505170031 | 81 | 0 | 0.0 | 2.6 | 0.00 | 0.00 | 0.00 | 43 | 1016.5 |
| 20260505164537 | 81 | 260 | 1.7 | 7.0 | 0.00 | 0.00 | 0.00 | 45 | 1016.6 |
| 20260505163040 | 81 | 181 | 1.7 | 7.0 | 0.00 | 0.00 | 0.00 | 44 | 1016.6 |
| 20260505161532 | 80 | 0 | 0.9 | 7.8 | 0.00 | 0.00 | 0.00 | 51 | 1017.0 |
| 20260505153039 | 79 | 43 | 1.7 | 5.2 | 0.00 | 0.00 | 0.00 | 55 | 1017.2 |
| 20260505151530 | 79 | 216 | 1.7 | 4.3 | 0.00 | 0.00 | 0.00 | 55 | 1017.4 |
| 20260505124530 | 60 | 0 | 0.0 | 2.6 | 0.00 | 0.00 | 0.00 | 93 | 1016.8 |
| 20260505123028 | 57 | 0 | 0.0 | 0.9 | 0.00 | 0.00 | 0.00 | 94 | 1016.7 |
| 20260505121532 | 55 | 0 | 0.0 | 0.0 | 0.00 | 0.00 | 0.00 | 93 | 1016.7 |
| 20260505120040 | 53 | 0 | 0.0 | 0.0 | 0.00 | 0.00 | 0.00 | 92 | 1016.6 |
| 20260505114529 | 52 | 0 | 0.0 | 0.0 | 0.00 | 0.00 | 0.00 | 91 | 1016.4 |
| 20260505113028 | 52 | 0 | 0.0 | 0.0 | 0.00 | 0.00 | 0.00 | 91 | 1016.3 |
| 20260505111532 | 52 | 0 | 0.0 | 0.0 | 0.00 | 0.00 | 0.00 | 90 | 1016.4 |
| 20260505101533 | 52 | 0 | 0.0 | 0.0 | 0.00 | 0.00 | 0.00 | 90 | 1016.1 |
| 20260505100033 | 52 | 0 | 0.0 | 0.0 | 0.00 | 0.00 | 0.00 | 89 | 1016.1 |
| 20260505094530 | 53 | 0 | 0.0 | 0.0 | 0.00 | 0.00 | 0.00 | 89 | 1016.0 |
| 20260505093030 | 53 | 0 | 0.0 | 0.0 | 0.00 | 0.00 | 0.00 | 89 | 1015.9 |
| 20260505091532 | 54 | 0 | 0.0 | 0.0 | 0.00 | 0.00 | 0.00 | 89 | 1015.6 |
| 20260505090031 | 54 | 0 | 0.0 | 0.0 | 0.00 | 0.00 | 0.00 | 90 | 1015.4 |
| 20260505084543 | 54 | 0 | 0.0 | 0.0 | 0.00 | 0.00 | 0.00 | 89 | 1015.2 |
| 20260505083050 | 55 | 0 | 0.0 | 0.0 | 0.00 | 0.00 | 0.00 | 89 | 1015.4 |
| 20260505081537 | 55 | 0 | 0.0 | 0.0 | 0.00 | 0.00 | 0.00 | 89 | 1015.2 |
| 20260505080040 | 55 | 0 | 0.0 | 0.0 | 0.00 | 0.00 | 0.00 | 89 | 1015.1 |
| 20260505074529 | 55 | 0 | 0.0 | 0.0 | 0.00 | 0.00 | 0.00 | 90 | 1015.2 |
| 20260505073040 | 56 | 0 | 0.0 | 0.0 | 0.00 | 0.00 | 0.00 | 89 | 1015.4 |
| 20260505071542 | 56 | 0 | 0.0 | 0.0 | 0.00 | 0.00 | 0.00 | 89 | 1015.4 |
| 20260505070041 | 56 | 0 | 0.0 | 0.0 | 0.00 | 0.00 | 0.00 | 89 | 1015.6 |
| 20260505064534 | 57 | 0 | 0.0 | 0.0 | 0.00 | 0.00 | 0.00 | 88 | 1015.7 |
| 20260505063038 | 57 | 0 | 0.0 | 0.0 | 0.00 | 0.00 | 0.00 | 88 | 1015.8 |
| 20260505061531 | 57 | 0 | 0.0 | 0.0 | 0.00 | 0.00 | 0.00 | 88 | 1016.0 |
| 20260505060051 | 57 | 0 | 0.0 | 0.0 | 0.00 | 0.00 | 0.00 | 88 | 1016.1 |
| 20260505054531 | 57 | 0 | 0.0 | 0.0 | 0.00 | 0.00 | 0.00 | 87 | 1016.3 |
| 20260505053029 | 58 | 0 | 0.0 | 0.0 | 0.00 | 0.00 | 0.00 | 87 | 1016.4 |
| 20260505051532 | 58 | 0 | 0.0 | 0.0 | 0.00 | 0.00 | 0.00 | 86 | 1016.7 |
| 20260505041537 | 60 | 0 | 0.0 | 0.0 | 0.00 | 0.00 | 0.00 | 82 | 1017.1 |
| 20260505040034 | 60 | 0 | 0.0 | 0.0 | 0.00 | 0.00 | 0.00 | 81 | 1016.9 |
| 20260505034532 | 61 | 0 | 0.0 | 0.0 | 0.00 | 0.00 | 0.00 | 80 | 1016.9 |
| 20260505033033 | 62 | 0 | 0.0 | 0.0 | 0.00 | 0.00 | 0.00 | 78 | 1016.8 |
| 20260505031532 | 63 | 0 | 0.0 | 0.0 | 0.00 | 0.00 | 0.00 | 76 | 1016.8 |
| 20260505030034 | 63 | 0 | 0.0 | 0.0 | 0.00 | 0.00 | 0.00 | 75 | 1016.7 |
| 20260505024533 | 64 | 0 | 0.0 | 0.0 | 0.00 | 0.00 | 0.00 | 74 | 1016.6 |
| 20260505023030 | 64 | 0 | 0.0 | 2.6 | 0.00 | 0.00 | 0.00 | 73 | 1016.5 |
| 20260505021531 | 65 | 0 | 0.0 | 2.6 | 0.00 | 0.00 | 0.00 | 71 | 1016.4 |
| 20260505020038 | 66 | 0 | 0.9 | 3.5 | 0.00 | 0.00 | 0.00 | 70 | 1016.2 |
| 20260505014541 | 67 | 0 | 0.0 | 1.7 | 0.00 | 0.00 | 0.00 | 68 | 1016.0 |
| 20260505013038 | 67 | 0 | 0.0 | 1.7 | 0.00 | 0.00 | 0.00 | 66 | 1015.9 |
| 20260505011536 | 68 | 0 | 0.0 | 3.5 | 0.00 | 0.00 | 0.00 | 64 | 1015.9 |
| 20260505010031 | 69 | 0 | 0.0 | 3.5 | 0.00 | 0.00 | 0.00 | 62 | 1015.8 |
| 20260505004540 | 70 | 0 | 0.0 | 5.2 | 0.00 | 0.00 | 0.00 | 60 | 1015.6 |
| 20260505003049 | 71 | 0 | 0.9 | 3.5 | 0.00 | 0.00 | 0.00 | 57 | 1015.5 |
| 20260505001530 | 71 | 94 | 2.6 | 7.8 | 0.00 | 0.00 | 0.00 | 54 | 1015.5 |
| 20260505000035 | 73 | 25 | 2.6 | 7.0 | 0.00 | 0.00 | 0.00 | 51 | 1015.3 |
| 20260504234531 | 74 | 124 | 0.9 | 5.2 | 0.00 | 0.00 | 0.00 | 47 | 1015.2 |
| 20260504233035 | 75 | 0 | 0.9 | 7.8 | 0.00 | 0.00 | 0.00 | 44 | 1015.2 |
| 20260504231532 | 76 | 0 | 0.9 | 5.2 | 0.00 | 0.00 | 0.00 | 40 | 1015.0 |
| 20260504230030 | 77 | 36 | 1.7 | 9.6 | 0.00 | 0.00 | 0.00 | 38 | 1014.7 |
| 20260504224529 | 78 | 81 | 2.6 | 10.4 | 0.00 | 0.00 | 0.00 | 37 | 1014.8 |
| 20260504223041 | 79 | 109 | 2.6 | 7.0 | 0.00 | 0.00 | 0.00 | 36 | 1014.7 |
| 20260504221530 | 80 | 105 | 2.6 | 8.7 | 0.00 | 0.00 | 0.00 | 36 | 1014.7 |
| 20260504220032 | 81 | 118 | 0.9 | 6.1 | 0.00 | 0.00 | 0.00 | 37 | 1014.7 |
| 20260504214532 | 82 | 119 | 1.7 | 6.1 | 0.00 | 0.00 | 0.00 | 36 | 1014.8 |
| 20260504213030 | 82 | 51 | 2.6 | 7.0 | 0.00 | 0.00 | 0.00 | 31 | 1014.6 |
| 20260504211544 | 83 | 134 | 0.9 | 3.5 | 0.00 | 0.00 | 0.00 | 28 | 1014.7 |
| 20260504210036 | 83 | 224 | 0.9 | 6.1 | 0.00 | 0.00 | 0.00 | 30 | 1014.8 |
| 20260504204532 | 82 | 233 | 0.9 | 6.1 | 0.00 | 0.00 | 0.00 | 28 | 1014.7 |
| 20260504203033 | 81 | 207 | 3.5 | 7.0 | 0.00 | 0.00 | 0.00 | 31 | 1014.9 |
| 20260504201531 | 82 | 62 | 0.9 | 5.2 | 0.00 | 0.00 | 0.00 | 30 | 1015.1 |
| 20260504200030 | 82 | 0 | 0.9 | 6.1 | 0.00 | 0.00 | 0.00 | 29 | 1015.1 |